Content
SEND FEEDBACK

Daily
Averages
Monthly
Summary
United States of America

CASTALIA, OHIO


Home > North America > United States > Ohio
Elevation: 589 feet     Latitude: 41 27N     Longitude: 082 43W

WEATHER
 
SELECT A DAY
Number of Records: 180,309;   Date Range: 10/8/98 - 7/26/14
 
SHARE

PRINT THIS DATA

[ ← Previous Day ]
WEATHER ALMANAC - JUNE 24, 2013
[ Next Day → ]
[ °C ]   °F
We're sorry. There is no daily almanac available for Castalia, Ohio on June 24, 2013.
WEATHER BY HOUR - JUNE 24, 2013
[ °C ]   °F
Local TimeTemperatureDewpointHumidityBarometerVisibilityWind DirectionWind SpeedGust SpeedPrecipitationEventsConditions
1:53 AM72.0 °F64.0 °F76 %30.07 in10.0 miSW (220°)9.2 mphClear
2:53 AM71.1 °F63.0 °F75 %30.07 in10.0 miSW (220°)6.9 mphClear
3:53 AM69.1 °F63.0 °F81 %30.08 in10.0 miSW (220°)6.9 mphClear
4:53 AM66.9 °F62.1 °F84 %30.09 in9.0 miSouth (190°)3.5 mphClear
5:53 AM66.0 °F62.1 °F87 %30.09 in7.0 miCalmClear
6:53 AM68.0 °F63.0 °F84 %30.10 in7.0 miSouth (190°)3.5 mphClear
7:53 AM72.0 °F64.0 °F76 %30.11 in8.0 miSSW (210°)6.9 mphClear
8:53 AM75.9 °F64.9 °F69 %30.11 in9.0 miSSW (210°)5.8 mphClear
9:53 AM81.0 °F66.0 °F60 %30.11 in10.0 miSW (230°)10.4 mphClear
10:53 AM82.9 °F66.0 °F56 %30.11 in10.0 miWSW (250°)9.2 mphClear
11:53 AM84.9 °F66.0 °F53 %30.11 in10.0 miWest (260°)13.8 mphScattered Clouds
12:53 PM87.1 °F64.0 °F46 %30.10 in10.0 miWSW (250°)12.7 mph21.9 mphPartly Cloudy
1:53 PM88.0 °F63.0 °F43 %30.07 in10.0 miSW (230°)12.7 mph20.7 mphClear
2:53 PM88.0 °F63.0 °F43 %30.04 in10.0 miSW (220°)15.0 mphPartly Cloudy
3:53 PM84.9 °F64.9 °F51 %30.03 in10.0 miWest (260°)9.2 mph18.4 mphScattered Clouds
4:53 PM84.0 °F66.9 °F56 %30.01 in10.0 miSW (230°)8.1 mphClear
5:53 PM86.0 °F66.0 °F51 %29.99 in10.0 miSSW (210°)15.0 mphClear
6:53 PM86.0 °F66.0 °F51 %29.97 in10.0 miSW (220°)9.2 mphPartly Cloudy
7:53 PM84.9 °F64.0 °F49 %29.98 in10.0 miWSW (240°)8.1 mphMostly Cloudy
8:53 PM81.0 °F64.9 °F58 %29.98 in10.0 miSSW (200°)5.8 mphClear
9:53 PM79.0 °F66.9 °F66 %29.98 in10.0 miSSW (210°)6.9 mphClear
10:53 PM78.1 °F66.0 °F66 %29.99 in10.0 miSSW (210°)6.9 mphClear
11:53 PM78.1 °F66.0 °F66 %30.00 in10.0 miSW (230°)8.1 mphClear
Hourly data recorded from KLPR, located miles away from Castalia, Ohio







STORIES FROM OUR PARTNERS